College Station, TX

11:28 PM CDT on April 25, 2017 (GMT -0500)
Easterwood

Weather History for KCLL - September, 2013

Change the Weather History Date:

Sunday, September 8, 2013

  Actual Average Record
Temperature  
Mean Temperature 83 °F 82 °F  
Max Temperature 95 °F 93 °F 101 °F (1912)
Min Temperature 71 °F 72 °F 57 °F (1950)
Degree Days  
Heating Degree Days 0 0  
Month to date heating degree days 0 0  
Since 1 July heating degree days 0 0  
Cooling Degree Days 18 17  
Month to date cooling degree days 176 144  
Year to date cooling degree days 2653 2490  
Growing Degree Days 32 (Base 50)    
Moisture  
Dew Point 72 °F    
Average Humidity 71    
Maximum Humidity 100    
Minimum Humidity 41    
Precipitation  
Precipitation T in 0.11 in 2.35 in (1962)
Month to date precipitation 0.10 0.88  
Year to date precipitation 19.83 26.40  
Sea Level Pressure  
Sea Level Pressure 29.96 in    
Wind  
Wind Speed 5 mph (ESE)    
Max Wind Speed 22 mph    
Max Gust Speed 28 mph    
Visibility 8 miles    
Events Fog , Rain , Thunderstorm    
T = Trace of Precipitation, MM = Missing Value Source: NWS Daily Summary

Daily Weather History Graph

Daily Weather History Graph

Search for Another Location

Airport or City:

Trip Planner

Search our weather history database for the weather conditions in past years. The results will help you decide how hot, cold, wet, or windy it might be!

Date:

Astronomy

Sep. 08, 2013 Rise Set
Actual Time 7:06 AM CDT 7:39 PM CDT
Civil Twilight 6:41 AM CDT 8:03 PM CDT
Nautical Twilight 6:13 AM CDT 8:32 PM CDT
Astronomical Twilight 5:44 AM CDT 9:01 PM CDT
Moon 10:07 AM CDT (9/8) 9:34 PM CDT (9/8)
Length of Visible Light 13h 21m
Length of Day
12h 33m
Waxing Crescent, 11% of the Moon is Illuminated
Sep 8
Waxing Crescent
Sep 12
First Quarter
Sep 19
Full
Sep 26
Last Quarter
Oct 4
New

Hourly Weather History & Observations

Time (CDT) Temp. Heat Index Dew Point Humidity Pressure Visibility Wind Dir Wind Speed Gust Speed Precip Events Conditions
12:53 AM 73.9 °F - 73.0 °F 97% 29.96 in 10.0 mi Calm Calm - N/A   Clear
1:53 AM 73.9 °F - 73.0 °F 97% 29.95 in 10.0 mi ENE 4.6 mph - 0.01 in   Clear
2:53 AM 73.0 °F - 72.0 °F 96% 29.93 in 10.0 mi NW 4.6 mph - N/A   Clear
3:53 AM 72.0 °F - 72.0 °F 100% 29.94 in 10.0 mi Calm Calm - N/A   Clear
4:33 AM 71.6 °F - 71.6 °F 100% 29.97 in 10.0 mi ENE 4.6 mph - N/A   Mostly Cloudy
4:53 AM 73.0 °F - 73.0 °F 100% 29.96 in 10.0 mi Calm Calm - N/A   Overcast
5:25 AM 71.6 °F - 71.6 °F 100% 29.97 in 10.0 mi ENE 4.6 mph - N/A   Scattered Clouds
5:53 AM 72.0 °F - 72.0 °F 100% 29.96 in 10.0 mi ENE 4.6 mph - N/A   Clear
6:06 AM 71.6 °F - 71.6 °F 100% 29.98 in 9.0 mi ENE 5.8 mph - N/A   Mostly Cloudy
6:53 AM 72.0 °F - 72.0 °F 100% 29.97 in 8.0 mi Calm Calm - N/A   Mostly Cloudy
7:11 AM 71.6 °F - 71.6 °F 100% 29.98 in 8.0 mi Calm Calm - N/A   Overcast
7:50 AM 71.6 °F - 71.6 °F 100% 29.99 in 4.0 mi ENE 3.5 mph - N/A   Overcast
7:51 AM 71.6 °F - 71.6 °F 100% 29.99 in 3.0 mi ENE 3.5 mph - N/A   Overcast
7:53 AM 72.0 °F - 72.0 °F 100% 29.98 in 3.0 mi ENE 3.5 mph - N/A   Overcast
8:12 AM 73.4 °F - 73.4 °F 100% 30.00 in 1.8 mi East 6.9 mph - N/A   Overcast
8:18 AM 73.4 °F - 73.4 °F 100% 30.00 in 0.2 mi East 5.8 mph - N/A Fog Fog
8:51 AM 73.4 °F - 73.4 °F 100% 30.00 in 0.2 mi Calm Calm - N/A Fog Fog
8:53 AM 73.0 °F - 73.0 °F 100% 29.99 in 0.2 mi Calm Calm - N/A Fog Fog
9:00 AM 73.4 °F - 73.4 °F 100% 30.00 in 0.5 mi Calm Calm - N/A Fog Fog
9:37 AM 73.4 °F - 73.4 °F 100% 30.00 in 2.0 mi ENE 3.5 mph - N/A   Overcast
9:53 AM 75.0 °F - 75.0 °F 100% 30.00 in 2.0 mi East 4.6 mph - N/A   Overcast
10:09 AM 78.8 °F - 75.2 °F 89% 30.01 in 10.0 mi Variable 3.5 mph - N/A   Mostly Cloudy
10:29 AM 80.6 °F 86.2 °F 75.2 °F 84% 30.00 in 10.0 mi Calm Calm - N/A   Scattered Clouds
10:53 AM 81.0 °F 86.7 °F 75.0 °F 82% 29.99 in 10.0 mi ENE 3.5 mph - N/A   Mostly Cloudy
11:04 AM 80.6 °F 86.2 °F 75.2 °F 84% 30.00 in 10.0 mi East 5.8 mph - N/A   Overcast
11:18 AM 82.4 °F 88.2 °F 73.4 °F 74% 30.00 in 10.0 mi ENE 5.8 mph - N/A   Mostly Cloudy
11:34 AM 84.2 °F 90.9 °F 73.4 °F 70% 30.00 in 10.0 mi Calm Calm - N/A   Scattered Clouds
11:53 AM 86.0 °F 93.0 °F 73.0 °F 65% 29.98 in 10.0 mi Variable 4.6 mph - N/A   Scattered Clouds
12:53 PM 87.1 °F 91.3 °F 69.1 °F 55% 29.95 in 10.0 mi Variable 4.6 mph - N/A   Partly Cloudy
1:53 PM 91.0 °F 95.2 °F 68.0 °F 47% 29.93 in 10.0 mi Variable 4.6 mph - N/A   Partly Cloudy
2:53 PM 91.9 °F 95.4 °F 66.9 °F 44% 29.91 in 10.0 mi East 8.1 mph 17.3 mph N/A   Partly Cloudy
3:53 PM 93.9 °F 97.5 °F 66.9 °F 41% 29.88 in 10.0 mi East 8.1 mph - N/A   Partly Cloudy
4:24 PM 84.2 °F 89.6 °F 71.6 °F 66% 29.90 in 10.0 mi South 12.7 mph 21.9 mph N/A   Mostly Cloudy
4:53 PM 87.1 °F 93.6 °F 72.0 °F 61% 29.88 in 10.0 mi South 11.5 mph - 0.00 in Rain Light Rain
5:53 PM 88.0 °F 92.9 °F 70.0 °F 55% 29.88 in 10.0 mi South 9.2 mph - N/A   Clear
6:19 PM 87.8 °F 93.8 °F 71.6 °F 58% 29.90 in 10.0 mi SSE 8.1 mph - N/A Thunderstorm Clear
6:53 PM 84.0 °F 86.5 °F 66.9 °F 56% 29.90 in 10.0 mi SSE 17.3 mph 23.0 mph N/A Thunderstorm Clear
7:09 PM 82.4 °F 86.3 °F 69.8 °F 66% 29.92 in 10.0 mi SSE 13.8 mph - N/A   Clear
7:53 PM 81.0 °F 84.4 °F 70.0 °F 69% 29.92 in 10.0 mi South 5.8 mph - N/A   Partly Cloudy
8:53 PM 79.0 °F - 71.1 °F 77% 29.93 in 10.0 mi SSE 3.5 mph - N/A   Clear
9:53 PM 79.0 °F - 71.1 °F 77% 29.94 in 10.0 mi SSE 8.1 mph - N/A   Clear
10:53 PM 77.0 °F - 71.1 °F 82% 29.94 in 10.0 mi SE 3.5 mph - N/A   Clear
11:53 PM 77.0 °F - 71.1 °F 82% 29.93 in 10.0 mi Calm Calm - N/A   Clear